Location: Calvatone
(45.1167°N, 10.4333°E)
Time: 08:29:15
(UTC+00:00)

METEOR M2 - Pass Details

Date: 07 December 2023
Orbit: 818 x 826 km, 98.4° (Epoch: 24 February)

Event Time Altitude Azimuth Distance (km) Brightness Sun altitude
Rises 05:57:50 0° 7° (N) 3,371 ? -7.8°
Reaches altitude 10° 06:00:17 10° 1° (N) 2,432 ? -7.4°
Maximum altitude 06:05:20 43° 292° (WNW) 1,145 ? -6.6°
Drops below altitude 10° 06:10:21 10° 222° (SW) 2,412 ? -5.8°
Sets 06:12:47 0° 216° (SW) 3,339 ? -5.4°
